DW7984 Weather Reports


time (UTC)temp
F
wind
direction
speed
knots
gust
knots
rain 1hr
in
rain 24hr
in
rain mn
in
humidity
%
barometer
mb
20260502221650 60 62 2.6 4.3 0.00 0.01 0.00 87 1054.1
20260502221549 60 61 2.6 4.3 0.00 0.01 0.00 87 1054.1
20260502221452 60 62 2.6 4.3 0.00 0.01 0.00 87 1054.1
20260502221348 60 62 2.6 4.3 0.00 0.01 0.00 87 1054.1
20260502221315 60 62 2.6 4.3 0.00 0.01 0.00 87 1054.0
20260502221248 60 61 2.6 4.3 0.00 0.01 0.00 87 1054.0
20260502221148 60 61 2.6 4.3 0.00 0.01 0.00 87 1054.0
20260502221045 60 60 2.6 4.3 0.00 0.01 0.00 87 1054.0
20260502220944 60 61 2.6 4.3 0.00 0.01 0.00 87 1054.0
20260502220845 60 60 2.6 4.3 0.00 0.01 0.00 86 1054.0
20260502220812 60 61 2.6 4.3 0.00 0.01 0.00 86 1054.0
20260502220744 60 60 2.6 4.3 0.00 0.01 0.00 86 1054.0
20260502220654 60 63 2.6 4.3 0.00 0.01 0.00 86 1054.0
20260502220648 60 61 2.6 4.3 0.00 0.01 0.00 86 1054.0
20260502220635 60 60 2.6 7.0 0.00 0.01 0.00 86 1054.1
20260502220625 60 61 2.6 7.0 0.00 0.01 0.00 86 1054.1
20260502220345 60 60 2.6 7.0 0.00 0.01 0.00 86 1054.0
20260502220120 60 60 2.6 7.0 0.00 0.01 0.01 86 1054.0
20260502215809 60 60 2.6 7.0 0.00 0.01 0.01 86 1054.1
20260502215743 60 62 2.6 7.0 0.00 0.01 0.01 86 1054.0
20260502215641 60 61 2.6 7.0 0.00 0.01 0.01 86 1054.0
20260502215541 60 60 2.6 7.0 0.00 0.01 0.01 86 1054.1
20260502215441 60 44 2.6 5.2 0.00 0.01 0.01 86 1054.1
20260502215341 60 45 2.6 5.2 0.00 0.01 0.01 86 1054.1
20260502215322 60 43 2.6 5.2 0.00 0.01 0.01 86 1054.1
20260502215312 60 44 2.6 5.2 0.00 0.01 0.01 86 1054.2
20260502215305 60 43 1.7 5.2 0.00 0.01 0.01 86 1054.2
20260502214941 60 158 1.7 4.3 0.00 0.01 0.01 86 1054.2
20260502214848 60 159 1.7 4.3 0.00 0.01 0.01 86 1054.2
20260502214831 60 160 1.7 4.3 0.00 0.01 0.01 86 1054.2
20260502214816 60 160 0.9 4.3 0.00 0.01 0.01 86 1054.2
20260502214802 60 160 0.9 4.3 0.00 0.01 0.01 86 1054.3
20260502214744 60 160 0.9 4.3 0.00 0.01 0.01 85 1054.3
20260502214736 60 162 0.9 1.7 0.00 0.01 0.01 85 1054.3
20260502214508 60 162 0.9 1.7 0.00 0.01 0.01 85 1054.3
20260502214455 60 162 0.9 3.5 0.00 0.01 0.01 85 1054.4
20260502214447 60 162 0.9 3.5 0.00 0.01 0.01 85 1054.4
20260502214439 60 162 0.9 3.5 0.00 0.01 0.01 85 1054.4
20260502214432 60 162 0.9 3.5 0.00 0.01 0.01 85 1054.3
20260502214150 60 162 0.9 3.5 0.00 0.01 0.01 85 1054.4
20260502213918 60 162 0.9 3.5 0.00 0.01 0.01 85 1054.3
20260502213316 60 162 0.0 3.5 0.00 0.01 0.01 85 1054.3
20260502213309 60 162 0.0 3.5 0.00 0.01 0.01 85 1054.3
20260502213259 60 162 0.9 1.7 0.00 0.01 0.01 85 1054.3
20260502212937 60 162 0.9 1.7 0.00 0.01 0.01 85 1054.3
20260502212841 60 162 0.9 1.7 0.00 0.01 0.01 85 1054.4
20260502212809 60 162 0.9 1.7 0.00 0.01 0.01 85 1054.4
20260502212739 60 162 0.9 1.7 0.00 0.01 0.01 85 1054.4
20260502212709 60 162 0.9 1.7 0.00 0.01 0.01 85 1054.4
20260502212701 60 162 0.9 1.7 0.00 0.01 0.01 85 1054.4
20260502212309 60 162 0.9 1.7 0.00 0.01 0.01 85 1054.3
20260502212238 60 162 0.9 1.7 0.00 0.01 0.01 85 1054.3
20260502212137 60 162 0.9 1.7 0.00 0.01 0.01 85 1054.3
20260502212038 60 162 0.9 1.7 0.00 0.01 0.01 84 1054.3
20260502211937 60 162 0.9 1.7 0.00 0.01 0.01 84 1054.3
20260502211809 60 162 0.0 1.7 0.00 0.01 0.01 84 1054.3
20260502211738 60 162 0.0 1.7 0.00 0.01 0.01 84 1054.3
20260502211637 60 162 0.0 1.7 0.00 0.01 0.01 84 1054.3
20260502211537 60 162 0.0 0.9 0.00 0.01 0.01 84 1054.3
20260502211502 60 162 0.0 0.9 0.00 0.01 0.01 84 1054.3
20260502211436 60 162 0.0 0.9 0.00 0.01 0.01 84 1054.3
20260502211425 60 162 0.0 0.9 0.00 0.01 0.01 84 1054.4
20260502211402 60 162 0.0 0.9 0.00 0.01 0.01 84 1054.4
20260502211132 60 162 0.0 0.9 0.00 0.01 0.01 84 1054.3
20260502211113 60 162 0.0 0.9 0.00 0.01 0.01 84 1054.4
20260502210533 60 162 0.0 0.9 0.00 0.01 0.01 84 1054.4
20260502210433 60 162 0.0 0.9 0.00 0.01 0.01 84 1054.4
20260502210309 60 162 0.0 0.0 0.00 0.01 0.01 84 1054.4
20260502210234 60 162 0.0 0.0 0.00 0.01 0.01 84 1054.4
20260502210133 60 162 0.0 0.0 0.00 0.01 0.01 83 1054.5
20260502210035 60 162 0.0 0.0 0.00 0.01 0.01 83 1054.4
20260502205947 60 162 0.0 0.0 0.00 0.01 0.01 83 1054.5
20260502205931 60 162 0.0 0.0 0.00 0.01 0.01 83 1054.5
20260502205917 60 162 0.0 0.0 0.00 0.01 0.01 83 1054.4
20260502205646 60 162 0.0 0.0 0.00 0.01 0.01 83 1054.4
20260502205637 60 162 0.0 0.0 0.00 0.01 0.01 83 1054.4
20260502205622 60 162 0.0 0.0 0.00 0.01 0.01 83 1054.4
20260502205610 60 162 0.0 0.0 0.00 0.01 0.01 83 1054.4
20260502205127 60 162 0.0 1.7 0.00 0.01 0.01 83 1054.3
20260502205119 60 162 0.0 1.7 0.00 0.01 0.01 83 1054.3
20260502204852 60 162 0.0 1.7 0.00 0.01 0.01 83 1054.3
20260502204529 60 162 0.0 1.7 0.00 0.01 0.01 83 1054.3
20260502204427 60 162 0.0 1.7 0.00 0.01 0.01 82 1054.3
20260502204323 60 162 0.0 1.7 0.00 0.01 0.01 82 1054.3
20260502204308 60 162 0.0 3.5 0.00 0.01 0.01 82 1054.3
20260502204217 60 162 0.9 3.5 0.00 0.01 0.01 82 1054.3
20260502204130 60 163 0.0 3.5 0.00 0.01 0.01 82 1054.3
20260502204123 60 162 0.0 3.5 0.00 0.01 0.01 82 1054.3
20260502204108 60 162 0.0 3.5 0.00 0.01 0.01 82 1054.3
20260502203844 60 162 0.0 3.5 0.00 0.01 0.01 82 1054.3
20260502203833 60 162 0.0 3.5 0.00 0.01 0.01 82 1054.3
20260502203511 60 162 0.0 3.5 0.00 0.01 0.01 82 1054.3
20260502203451 60 162 0.0 3.5 0.00 0.01 0.01 81 1054.3
20260502203433 60 162 0.0 3.5 0.00 0.01 0.01 81 1054.3
20260502203110 60 162 0.0 0.0 0.00 0.01 0.01 81 1054.2
20260502203009 60 162 0.0 0.0 0.00 0.01 0.01 81 1054.2
20260502202906 60 162 0.0 0.0 0.00 0.01 0.01 81 1054.3
20260502202806 60 162 0.0 0.0 0.00 0.01 0.01 81 1054.3
20260502202705 60 162 0.0 0.0 0.00 0.01 0.01 81 1054.3
20260502202604 60 162 0.0 0.9 0.00 0.01 0.01 81 1054.3
20260502202504 60 162 0.0 0.9 0.00 0.01 0.01 81 1054.3
20260502202404 60 162 0.0 0.9 0.00 0.01 0.01 81 1054.4
20260502202306 60 162 0.0 0.9 0.00 0.01 0.01 81 1054.4
20260502202204 60 162 0.0 0.9 0.00 0.01 0.01 81 1054.3
20260502202132 60 162 0.0 0.9 0.00 0.01 0.01 81 1054.3
20260502202127 60 162 0.0 0.9 0.00 0.01 0.01 81 1054.3
20260502201806 60 162 0.0 0.9 0.00 0.01 0.01 81 1054.4
20260502201703 60 162 0.0 0.9 0.00 0.01 0.01 81 1054.4
20260502201604 60 162 0.0 0.9 0.00 0.01 0.01 80 1054.4
20260502201503 60 162 0.0 0.9 0.00 0.01 0.01 80 1054.4
20260502201403 60 162 0.0 0.9 0.00 0.01 0.01 80 1054.4
20260502201307 60 162 0.0 0.9 0.00 0.01 0.01 80 1054.3
20260502201233 60 162 0.0 0.9 0.00 0.01 0.01 81 1054.3
20260502201221 60 162 0.0 0.9 0.00 0.01 0.01 81 1054.3
20260502200942 60 162 0.0 0.9 0.00 0.01 0.01 81 1054.3
20260502200927 60 162 0.0 0.9 0.00 0.01 0.01 81 1054.3
20260502200601 60 162 0.0 0.9 0.00 0.01 0.01 80 1054.3
20260502200501 60 162 0.0 0.9 0.00 0.01 0.01 80 1054.2
20260502200417 60 163 0.0 0.9 0.00 0.01 0.01 80 1054.2
20260502200401 60 162 0.0 0.9 0.00 0.01 0.01 80 1054.2
20260502200346 60 162 0.0 1.7 0.00 0.01 0.01 80 1054.2
20260502200124 60 162 0.9 1.7 0.00 0.01 0.01 80 1054.2
20260502195803 60 162 0.9 1.7 0.00 0.01 0.01 80 1054.3
20260502195700 60 162 0.0 1.7 0.00 0.01 0.01 80 1054.3
20260502195600 60 162 0.0 1.7 0.00 0.01 0.01 80 1054.3
20260502195459 60 162 0.0 1.7 0.00 0.01 0.01 80 1054.3
20260502195358 60 162 0.0 1.7 0.00 0.01 0.01 80 1054.3
20260502195311 60 162 0.0 1.7 0.00 0.01 0.01 80 1054.2
20260502195257 60 162 0.0 1.7 0.00 0.01 0.01 80 1054.2
20260502195155 60 162 0.0 1.7 0.00 0.01 0.01 80 1054.2
20260502195053 60 162 0.0 1.7 0.00 0.01 0.01 80 1054.2
20260502194952 60 162 0.0 1.7 0.00 0.01 0.01 80 1054.3
20260502194852 60 162 0.0 0.0 0.00 0.01 0.01 80 1054.3
20260502194806 60 162 0.0 0.0 0.00 0.01 0.01 80 1054.2
20260502194751 60 162 0.0 0.0 0.00 0.01 0.01 80 1054.2
20260502194648 60 162 0.0 0.9 0.00 0.01 0.01 79 1054.2
20260502194624 60 162 0.0 0.9 0.00 0.01 0.01 79 1054.2
20260502194616 60 162 0.0 0.9 0.00 0.01 0.01 79 1054.1
20260502194340 60 162 0.0 0.9 0.00 0.01 0.01 79 1054.1
20260502194332 60 162 0.0 0.9 0.00 0.01 0.01 79 1054.1
20260502194324 60 162 0.0 0.9 0.00 0.01 0.01 79 1054.0
20260502193944 60 162 0.0 0.9 0.00 0.01 0.01 79 1054.0
20260502193844 60 162 0.0 0.9 0.00 0.01 0.01 79 1054.0
20260502193804 60 162 0.0 0.9 0.00 0.01 0.01 79 1054.0
20260502193745 60 162 0.0 0.9 0.00 0.01 0.01 79 1054.0
20260502193650 60 162 0.0 0.9 0.00 0.01 0.01 79 1054.0
20260502193643 60 162 0.0 0.9 0.00 0.01 0.01 79 1054.0
20260502193631 60 162 0.0 0.9 0.00 0.01 0.01 79 1054.0
20260502193622 60 162 0.0 0.9 0.00 0.01 0.01 79 1053.9
20260502193358 60 162 0.0 0.9 0.00 0.01 0.01 78 1054.0
20260502193035 60 162 0.0 1.7 0.00 0.01 0.01 78 1054.0
20260502192932 60 162 0.0 1.7 0.00 0.01 0.01 78 1054.0
20260502192857 60 162 0.0 1.7 0.00 0.01 0.01 78 1054.0
20260502192850 60 162 0.0 1.7 0.00 0.01 0.01 78 1054.0
20260502192840 60 162 0.0 1.7 0.00 0.01 0.01 78 1054.0
20260502192834 60 162 0.0 1.7 0.00 0.01 0.01 77 1054.0
20260502192825 60 162 0.0 1.7 0.00 0.01 0.01 77 1054.0
20260502192803 60 162 0.0 1.7 0.00 0.01 0.01 77 1053.9
20260502192310 61 162 0.0 1.7 0.00 0.01 0.01 77 1054.0
20260502192304 61 162 0.0 1.7 0.00 0.01 0.01 77 1054.0
20260502192254 61 162 0.0 3.5 0.00 0.01 0.01 77 1054.0
20260502192026 61 162 0.9 3.5 0.00 0.01 0.01 77 1053.9
20260502191533 61 162 0.9 3.5 0.00 0.01 0.01 76 1053.9
20260502191522 61 162 0.9 3.5 0.00 0.01 0.01 76 1053.9
20260502191220 61 162 0.9 3.5 0.00 0.01 0.01 76 1054.0
20260502191203 61 162 0.9 3.5 0.00 0.01 0.01 76 1053.9
20260502191155 61 162 0.9 3.5 0.00 0.01 0.01 76 1053.9
20260502190806 61 162 0.9 3.5 0.00 0.01 0.01 75 1053.8
20260502190719 61 162 0.0 3.5 0.00 0.01 0.01 75 1053.9
20260502190619 61 162 0.0 1.7 0.00 0.01 0.01 75 1053.9
20260502190518 61 161 0.9 1.7 0.00 0.01 0.01 75 1053.9
20260502190417 61 162 0.9 1.7 0.00 0.01 0.01 75 1053.9
20260502190304 61 162 0.9 3.5 0.00 0.01 0.01 75 1053.9
20260502190213 61 162 0.9 3.5 0.00 0.01 0.01 75 1054.0
20260502190112 61 162 0.9 3.5 0.00 0.01 0.01 75 1054.0
20260502190012 61 162 0.9 3.5 0.00 0.01 0.01 75 1054.0
20260502185912 61 162 0.9 3.5 0.00 0.01 0.01 74 1054.0
20260502185803 61 162 0.9 4.3 0.00 0.01 0.01 74 1053.9
20260502185738 61 162 1.7 4.3 0.00 0.01 0.01 74 1053.9
20260502185729 61 160 1.7 4.3 0.00 0.01 0.01 74 1053.9
20260502185406 62 160 1.7 4.3 0.00 0.01 0.01 74 1053.9
20260502185305 62 160 1.7 4.3 0.00 0.01 0.01 74 1053.9
20260502185204 62 160 1.7 4.3 0.00 0.01 0.01 73 1053.9
20260502185104 62 160 2.6 4.3 0.00 0.01 0.01 73 1054.0
20260502185005 62 160 2.6 4.3 0.00 0.01 0.01 73 1054.0
20260502184905 62 160 1.7 4.3 0.00 0.01 0.01 73 1054.0
20260502184836 62 160 1.7 4.3 0.00 0.01 0.01 72 1053.9
20260502184825 62 160 1.7 4.3 0.00 0.01 0.01 72 1053.9
20260502184501 62 161 1.7 4.3 0.00 0.01 0.01 72 1053.9
20260502184402 62 161 1.7 4.3 0.00 0.01 0.01 72 1053.8
20260502184313 62 161 1.7 4.3 0.00 0.01 0.01 72 1053.9
20260502184259 62 161 1.7 4.3 0.00 0.01 0.01 72 1054.0
20260502184249 62 160 1.7 4.3 0.00 0.01 0.01 72 1053.9
20260502184240 62 161 1.7 4.3 0.00 0.01 0.01 72 1053.9
20260502184231 62 161 1.7 4.3 0.00 0.01 0.01 71 1053.9
20260502184005 62 162 1.7 4.3 0.00 0.01 0.01 71 1053.9
20260502183722 62 162 0.9 4.3 0.00 0.01 0.01 71 1053.9
20260502183358 62 163 0.9 4.3 0.00 0.01 0.01 71 1053.9
20260502183342 62 163 0.9 4.3 0.00 0.01 0.01 71 1054.0
20260502183335 62 163 0.9 4.3 0.00 0.01 0.01 71 1054.0
20260502183322 62 162 0.9 4.3 0.00 0.01 0.01 71 1054.0
20260502183043 62 163 0.9 4.3 0.00 0.01 0.01 71 1054.0
20260502183031 62 162 0.9 4.3 0.00 0.01 0.01 71 1054.0
20260502182758 62 163 0.9 4.3 0.00 0.01 0.01 71 1054.0
20260502182658 62 163 0.9 4.3 0.00 0.01 0.01 71 1054.0
20260502182559 62 163 0.9 4.3 0.00 0.01 0.01 71 1054.0
20260502182456 62 163 0.9 4.3 0.00 0.01 0.01 71 1054.0
20260502182358 62 163 0.9 5.2 0.00 0.01 0.01 71 1054.1
20260502182309 62 162 0.9 5.2 0.00 0.01 0.01 71 1054.1
20260502182258 62 162 0.9 5.2 0.00 0.01 0.01 71 1054.1
20260502182156 62 162 0.9 5.2 0.00 0.01 0.01 71 1054.0
20260502182056 62 163 1.7 5.2 0.00 0.01 0.01 71 1054.0
20260502182042 62 162 1.7 5.2 0.00 0.01 0.01 71 1054.0
20260502182028 62 163 1.7 6.1 0.00 0.01 0.01 71 1054.0
20260502181749 62 163 2.6 6.1 0.00 0.01 0.01 71 1054.0
20260502181649 62 163 2.6 6.1 0.00 0.01 0.01 70 1054.0
20260502181549 62 162 2.6 6.1 0.00 0.01 0.01 70 1054.0
20260502181448 62 163 2.6 6.1 0.00 0.01 0.01 70 1053.9
20260502181342 62 161 2.6 6.1 0.00 0.01 0.01 70 1053.9
20260502181304 62 162 2.6 6.1 0.00 0.01 0.01 70 1053.9
20260502181242 62 163 2.6 6.1 0.00 0.01 0.01 70 1053.9
20260502181218 62 162 2.6 6.1 0.00 0.01 0.01 71 1053.9
20260502181211 62 123 2.6 6.1 0.00 0.01 0.01 71 1053.8
20260502180813 62 174 1.7 4.3 0.00 0.01 0.01 71 1053.8
20260502180803 62 222 1.7 4.3 0.00 0.01 0.01 71 1053.8
20260502180750 62 222 1.7 6.1 0.00 0.01 0.01 71 1053.9
20260502180738 62 224 1.7 6.1 0.00 0.01 0.01 71 1053.9
20260502180730 63 125 1.7 6.1 0.00 0.01 0.01 71 1054.0
20260502180720 63 125 1.7 6.1 0.00 0.01 0.01 71 1054.0
20260502180132 63 125 1.7 6.1 0.00 0.01 0.01 72 1054.0
20260502164324 65 127 4.3 7.8 0.00 0.01 0.01 63 1054.3
20260502164318 65 125 4.3 7.8 0.00 0.01 0.01 63 1054.3
20260502164305 65 64 4.3 7.8 0.00 0.01 0.01 63 1054.3
20260502164039 65 110 4.3 7.8 0.00 0.01 0.01 62 1054.3
20260502164026 65 110 4.3 7.8 0.00 0.01 0.01 61 1054.3
20260502163732 65 112 3.5 7.8 0.00 0.01 0.01 60 1054.5
20260502163632 65 113 3.5 7.8 0.00 0.01 0.01 60 1054.5
20260502163532 65 115 3.5 7.8 0.00 0.01 0.01 59 1054.5
20260502163434 65 131 3.5 7.8 0.00 0.01 0.01 59 1054.5
20260502163336 65 130 4.3 7.8 0.00 0.01 0.01 60 1054.6
20260502163325 65 106 4.3 8.7 0.00 0.01 0.01 61 1054.6
20260502163318 65 106 4.3 9.6 0.00 0.01 0.01 61 1054.5
20260502163306 65 95 4.3 9.6 0.00 0.01 0.01 62 1054.6
20260502163300 65 100 4.3 9.6 0.00 0.01 0.01 61 1054.6
20260502163250 65 100 3.5 9.6 0.00 0.01 0.01 61 1054.5
20260502163238 65 97 3.5 9.6 0.00 0.01 0.01 61 1054.5
20260502162752 66 135 3.5 9.6 0.00 0.01 0.01 61 1054.5
20260502162429 66 133 3.5 9.6 0.00 0.01 0.01 61 1054.6
20260502162357 66 139 3.5 9.6 0.00 0.01 0.01 61 1054.6
20260502162348 66 122 3.5 9.6 0.00 0.01 0.01 61 1054.6
20260502162341 66 134 3.5 8.7 0.00 0.01 0.01 61 1054.7
20260502162331 66 127 3.5 8.7 0.00 0.01 0.01 61 1054.7
20260502162323 66 127 3.5 8.7 0.00 0.01 0.01 61 1054.7
20260502162312 66 127 3.5 8.7 0.00 0.01 0.01 60 1054.8
20260502162042 66 128 4.3 8.7 0.00 0.01 0.01 60 1054.7
20260502162036 66 127 4.3 8.7 0.00 0.01 0.01 60 1054.7
20260502161813 66 120 4.3 8.7 0.00 0.01 0.01 61 1054.8
20260502161805 66 120 4.3 9.6 0.00 0.01 0.01 61 1054.7
20260502161749 66 114 5.2 10.4 0.00 0.01 0.01 61 1054.8
20260502161525 66 115 5.2 10.4 0.00 0.01 0.01 60 1054.7
20260502161257 66 108 5.2 10.4 0.00 0.01 0.01 59 1054.8
20260502161247 66 177 5.2 10.4 0.00 0.01 0.01 59 1054.8
20260502161017 66 122 5.2 10.4 0.00 0.01 0.01 59 1054.7
20260502161006 66 125 5.2 10.4 0.00 0.01 0.01 59 1054.7
20260502160459 67 88 4.3 10.4 0.00 0.01 0.01 59 1054.7
20260502160449 67 124 3.5 9.6 0.00 0.01 0.01 59 1054.6
20260502160442 67 115 3.5 9.6 0.00 0.01 0.01 59 1054.6
20260502160112 67 83 4.3 9.6 0.00 0.01 0.01 59 1054.6
20260502152342 66 243 1.7 7.8 0.00 0.01 0.01 56 1055.0
20260502152251 66 225 1.7 7.8 0.00 0.01 0.01 57 1055.1
20260502152244 66 179 1.7 7.0 0.00 0.01 0.01 57 1055.1
20260502152233 66 160 1.7 7.0 0.00 0.01 0.01 57 1055.1
20260502152224 66 160 1.7 7.0 0.00 0.01 0.01 57 1055.1
20260502152213 67 160 1.7 7.0 0.00 0.01 0.01 59 1055.2
20260502152201 67 98 1.7 7.0 0.00 0.01 0.01 60 1055.2
20260502152154 67 181 1.7 4.3 0.00 0.01 0.01 60 1055.2
20260502152147 67 180 1.7 4.3 0.00 0.01 0.01 60 1055.2
20260502151917 67 180 2.6 5.2 0.00 0.01 0.01 58 1055.2
20260502151906 67 180 2.6 5.2 0.00 0.01 0.01 58 1055.2
20260502151858 67 180 2.6 5.2 0.00 0.01 0.01 58 1055.1
20260502151153 67 178 2.6 5.2 0.00 0.01 0.01 59 1055.1
20260502150829 67 181 2.6 5.2 0.00 0.01 0.01 58 1055.1
20260502150729 67 180 2.6 6.1 0.00 0.01 0.01 58 1055.1
20260502150630 67 187 2.6 6.1 0.00 0.01 0.01 57 1055.1
20260502150605 67 201 2.6 6.1 0.00 0.01 0.01 57 1055.1
20260502150557 67 183 2.6 6.1 0.00 0.01 0.01 56 1055.1
20260502150543 67 183 2.6 6.1 0.00 0.01 0.01 57 1055.1
20260502150300 67 163 2.6 6.1 0.00 0.01 0.01 57 1055.1
20260502150252 67 106 3.5 6.1 0.00 0.01 0.01 57 1055.1
20260502130720 67 112 1.7 7.8 0.00 0.01 0.01 53 1056.5
20260502130618 67 112 1.7 7.8 0.00 0.01 0.01 54 1056.5
20260502130517 67 173 1.7 7.8 0.00 0.01 0.01 54 1056.5
20260502130418 67 174 1.7 7.8 0.00 0.01 0.01 54 1056.5
20260502130350 67 174 1.7 6.1 0.00 0.01 0.01 55 1056.5
20260502130330 67 214 1.7 5.2 0.00 0.01 0.01 56 1056.5
20260502130320 67 225 1.7 6.1 0.00 0.01 0.01 56 1056.5
20260502130313 67 226 1.7 6.1 0.00 0.01 0.01 57 1056.5
20260502130305 67 225 1.7 6.1 0.00 0.01 0.01 57 1056.5
20260502130257 66 225 2.6 6.1 0.00 0.01 0.01 57 1056.5
20260502130240 66 225 2.6 6.1 0.00 0.01 0.01 57 1056.5
20260502130232 66 225 2.6 6.1 0.00 0.01 0.01 56 1056.5
20260502130220 66 225 2.6 7.0 0.00 0.01 0.01 57 1056.5
20260502130213 66 228 2.6 7.0 0.00 0.01 0.01 59 1056.5
20260502130204 66 216 3.5 7.8 0.00 0.01 0.01 60 1056.5
20260502123753 67 133 3.5 9.6 0.00 0.01 0.01 61 1056.4
20260502123746 67 134 3.5 9.6 0.00 0.01 0.01 61 1056.4
20260502123736 67 136 4.3 9.6 0.00 0.01 0.01 61 1056.4
20260502123503 67 138 4.3 9.6 0.00 0.01 0.01 61 1056.4
20260502123448 67 126 4.3 9.6 0.00 0.01 0.01 60 1056.5
20260502123210 67 108 3.5 9.6 0.00 0.01 0.01 60 1056.5
20260502123109 67 68 3.5 9.6 0.00 0.01 0.01 60 1056.4
20260502123009 67 77 3.5 9.6 0.00 0.01 0.01 59 1056.4
20260502122910 67 70 3.5 9.6 0.00 0.01 0.01 59 1056.3
20260502122810 67 66 2.6 9.6 0.00 0.01 0.01 61 1056.3
20260502122709 67 69 3.5 9.6 0.00 0.01 0.01 62 1056.4
20260502122611 67 68 3.5 9.6 0.00 0.01 0.01 63 1056.4
20260502122604 67 67 3.5 9.6 0.00 0.01 0.01 62 1056.4
20260502122556 67 117 3.5 9.6 0.00 0.01 0.01 62 1056.5
20260502122547 67 78 3.5 7.8 0.00 0.01 0.01 63 1056.4
20260502122536 67 79 3.5 7.8 0.00 0.01 0.01 62 1056.5
20260502122529 67 75 3.5 7.8 0.00 0.01 0.01 62 1056.5
20260502122045 67 77 3.5 7.8 0.00 0.01 0.01 61 1056.6
20260502122027 66 77 3.5 7.8 0.00 0.01 0.01 61 1056.6
20260502122011 66 75 3.5 7.8 0.00 0.01 0.01 61 1056.5
20260502121739 66 97 2.6 6.1 0.00 0.01 0.01 62 1056.6
20260502121731 66 109 2.6 6.1 0.00 0.01 0.01 63 1056.7
20260502121501 66 128 2.6 6.1 0.00 0.01 0.01 63 1056.7
20260502121449 66 128 2.6 6.1 0.00 0.01 0.01 63 1056.8
20260502121223 66 118 2.6 7.8 0.00 0.01 0.01 63 1056.8
20260502120902 66 110 2.6 7.8 0.00 0.01 0.01 64 1056.8
20260502120803 66 110 2.6 7.8 0.00 0.01 0.01 64 1056.9
20260502120740 66 75 2.6 7.8 0.00 0.01 0.01 63 1056.8
20260502120733 66 74 2.6 7.8 0.00 0.01 0.01 63 1056.8
20260502120724 66 91 2.6 7.8 0.00 0.01 0.01 64 1056.8
20260502120402 66 125 2.6 7.8 0.00 0.01 0.01 64 1056.8
20260502120347 66 81 3.5 7.8 0.00 0.01 0.01 65 1056.9
20260502120334 66 70 3.5 7.8 0.00 0.01 0.01 65 1056.9
20260502120327 66 71 3.5 9.6 0.00 0.01 0.01 65 1056.9
20260502115921 66 62 3.5 9.6 0.00 0.01 0.01 66 1056.9
20260502115602 66 60 3.5 9.6 0.00 0.01 0.01 65 1056.8
20260502115504 65 60 3.5 9.6 0.00 0.01 0.01 65 1056.8
20260502115404 65 62 3.5 9.6 0.00 0.01 0.01 65 1056.8
20260502115305 65 59 3.5 9.6 0.00 0.01 0.01 65 1056.8
20260502115216 65 52 2.6 9.6 0.00 0.01 0.01 66 1056.8
20260502115203 65 58 2.6 7.0 0.00 0.01 0.01 66 1056.8
20260502115101 65 117 2.6 6.1 0.00 0.01 0.01 67 1056.9
20260502115002 65 115 2.6 6.1 0.00 0.01 0.01 66 1056.9
20260502114902 65 115 2.6 6.1 0.00 0.01 0.01 66 1056.9
20260502114813 65 115 2.6 6.1 0.00 0.01 0.01 65 1056.9
20260502114804 65 115 2.6 6.1 0.00 0.01 0.01 66 1057.0
20260502114757 65 116 2.6 7.0 0.00 0.01 0.01 66 1057.0
20260502114743 65 116 2.6 7.0 0.00 0.01 0.01 65 1057.0
20260502114735 65 116 2.6 7.0 0.00 0.01 0.01 66 1056.9
20260502114451 65 117 2.6 7.0 0.00 0.01 0.01 66 1057.0
20260502114441 65 117 2.6 7.0 0.00 0.01 0.01 66 1057.0
20260502113858 65 122 3.5 7.8 0.00 0.01 0.01 66 1057.0
20260502113758 65 122 3.5 7.8 0.00 0.01 0.01 66 1057.0
20260502113738 65 123 3.5 7.8 0.00 0.01 0.01 66 1057.0
20260502113729 65 127 3.5 7.8 0.00 0.01 0.01 66 1057.0
20260502113717 65 126 3.5 7.8 0.00 0.01 0.01 66 1057.0
20260502113706 65 127 3.5 7.8 0.00 0.01 0.01 66 1057.0
20260502113436 65 128 3.5 7.8 0.00 0.01 0.01 66 1057.0
20260502113157 65 129 3.5 7.8 0.00 0.01 0.01 66 1057.1
20260502113057 65 107 2.6 7.8 0.00 0.01 0.01 67 1057.1
20260502112957 65 104 3.5 7.8 0.00 0.01 0.01 67 1057.1
20260502112858 65 93 3.5 7.8 0.00 0.01 0.01 66 1057.1
20260502112758 65 93 3.5 7.8 0.00 0.01 0.01 67 1057.1
20260502112716 65 92 3.5 7.8 0.00 0.01 0.01 68 1057.1
20260502112657 65 95 3.5 7.8 0.00 0.01 0.01 68 1057.1
20260502112558 65 67 3.5 7.0 0.00 0.01 0.01 68 1057.1
20260502112457 65 67 3.5 7.0 0.00 0.01 0.01 67 1057.1
20260502112358 65 61 3.5 7.0 0.00 0.01 0.01 67 1057.1
20260502112258 65 61 3.5 7.0 0.00 0.01 0.01 67 1057.1
20260502112217 65 62 3.5 7.0 0.00 0.01 0.01 67 1057.2
20260502112159 65 61 3.5 7.0 0.00 0.01 0.01 67 1057.2
20260502112058 65 62 3.5 7.0 0.00 0.01 0.01 67 1057.2
20260502112030 65 91 3.5 7.0 0.00 0.01 0.01 68 1057.2
20260502112019 65 149 3.5 7.0 0.00 0.01 0.01 68 1057.2
20260502111716 65 93 3.5 6.1 0.00 0.01 0.01 68 1057.2
20260502111655 65 93 3.5 6.1 0.00 0.01 0.01 68 1057.2
20260502111555 65 94 3.5 6.1 0.00 0.01 0.01 68 1057.2
20260502111455 65 95 3.5 7.0 0.00 0.01 0.01 68 1057.2
20260502111356 65 97 2.6 7.0 0.00 0.01 0.01 68 1057.2
20260502111332 65 95 2.6 7.0 0.00 0.01 0.01 68 1057.2
20260502111323 65 96 2.6 7.0 0.00 0.01 0.01 68 1057.2
20260502111315 65 95 2.6 7.0 0.00 0.01 0.01 68 1057.2
20260502111032 65 97 2.6 7.0 0.00 0.01 0.01 68 1057.2
20260502111020 65 100 2.6 7.0 0.00 0.01 0.01 69 1057.3
20260502111010 65 99 2.6 7.8 0.00 0.01 0.01 69 1057.3
20260502111000 65 101 2.6 7.8 0.00 0.01 0.01 69 1057.4
20260502110949 65 99 2.6 7.8 0.00 0.01 0.01 69 1057.4
20260502110942 65 99 2.6 7.8 0.00 0.01 0.01 69 1057.4
20260502110929 65 54 2.6 7.8 0.00 0.01 0.01 68 1057.4
20260502110701 65 54 3.5 7.8 0.00 0.01 0.01 68 1057.4
20260502110652 65 54 4.3 8.7 0.00 0.01 0.01 68 1057.4
20260502110644 65 54 4.3 8.7 0.00 0.01 0.01 69 1057.4
20260502105931 65 124 4.3 8.7 0.00 0.01 0.01 69 1057.3
20260502105641 65 124 4.3 8.7 0.00 0.01 0.01 69 1057.4
20260502105609 65 112 4.3 8.7 0.00 0.01 0.01 68 1057.3
20260502105601 65 76 4.3 8.7 0.00 0.01 0.01 69 1057.3
20260502105238 65 80 3.5 8.7 0.00 0.01 0.01 69 1057.3
20260502105206 65 74 3.5 8.7 0.00 0.01 0.01 70 1057.3
20260502105137 65 67 3.5 8.7 0.00 0.01 0.01 70 1057.3
20260502105039 65 144 3.5 7.8 0.00 0.01 0.01 70 1057.3
20260502104938 65 81 3.5 7.8 0.00 0.01 0.01 70 1057.3
20260502104839 65 81 3.5 7.8 0.00 0.01 0.01 69 1057.4
20260502104706 65 79 3.5 7.8 0.00 0.01 0.01 70 1057.4
20260502104635 65 79 3.5 7.8 0.00 0.01 0.01 70 1057.4
20260502104535 65 81 2.6 7.8 0.00 0.01 0.01 70 1057.4
20260502104435 65 128 2.6 7.8 0.00 0.01 0.01 70 1057.4
20260502104336 65 47 3.5 6.1 0.00 0.01 0.01 70 1057.4
20260502104234 65 45 3.5 7.8 0.00 0.01 0.01 69 1057.4
20260502104206 65 44 3.5 7.8 0.00 0.01 0.01 70 1057.4
20260502104134 65 44 4.3 7.8 0.00 0.01 0.01 70 1057.4
20260502104029 65 43 4.3 8.7 0.00 0.01 0.01 70 1057.4
20260502103945 65 124 4.3 8.7 0.00 0.01 0.01 71 1057.4
20260502103936 65 122 4.3 8.7 0.00 0.01 0.01 72 1057.5
20260502103925 65 97 4.3 8.7 0.00 0.01 0.01 71 1057.4
20260502103629 65 74 4.3 8.7 0.00 0.01 0.01 71 1057.4
20260502103529 65 74 4.3 8.7 0.00 0.01 0.01 71 1057.5
20260502103435 65 87 4.3 8.7 0.00 0.01 0.01 71 1057.5
20260502103426 65 90 4.3 8.7 0.00 0.01 0.01 72 1057.5
20260502103417 65 116 4.3 8.7 0.00 0.01 0.01 72 1057.4
20260502103407 65 92 4.3 8.7 0.00 0.01 0.01 71 1057.4
20260502103354 65 95 4.3 8.7 0.00 0.01 0.01 71 1057.5
20260502103344 65 152 4.3 7.8 0.00 0.01 0.01 72 1057.4
20260502102851 64 70 4.3 7.8 0.00 0.01 0.01 71 1057.4
20260502102840 64 73 4.3 7.8 0.00 0.01 0.01 71 1057.4
20260502102549 64 77 4.3 7.8 0.00 0.01 0.01 71 1057.4
20260502102540 64 127 3.5 7.8 0.00 0.01 0.01 72 1057.4
20260502102215 64 114 3.5 7.8 0.00 0.01 0.01 72 1057.5
20260502102209 64 108 3.5 7.8 0.00 0.01 0.01 72 1057.5
20260502102116 64 104 3.5 7.8 0.00 0.01 0.01 72 1057.5
20260502102015 64 122 3.5 7.8 0.00 0.01 0.01 72 1057.5
20260502101916 64 68 3.5 7.8 0.00 0.01 0.01 72 1057.5
20260502101813 64 64 3.5 7.8 0.00 0.01 0.01 72 1057.5
20260502101715 64 64 3.5 7.8 0.00 0.01 0.01 72 1057.5
20260502101708 64 65 3.5 7.8 0.00 0.01 0.01 72 1057.5
20260502101612 64 140 3.5 7.8 0.00 0.01 0.01 73 1057.5
20260502101509 64 141 4.3 7.8 0.00 0.01 0.01 73 1057.5
20260502101458 64 141 4.3 7.8 0.00 0.01 0.01 72 1057.5
20260502101446 64 142 4.3 7.8 0.00 0.01 0.01 72 1057.5
20260502101426 64 80 4.3 7.8 0.00 0.01 0.01 72 1057.6
20260502101105 64 125 3.5 7.8 0.00 0.01 0.01 72 1057.5
20260502101004 64 115 3.5 7.8 0.00 0.01 0.01 72 1057.6
20260502100904 64 84 3.5 7.8 0.00 0.01 0.01 71 1057.5
20260502100803 64 88 3.5 7.8 0.00 0.01 0.01 71 1057.5
20260502100710 64 90 3.5 7.8 0.00 0.01 0.01 71 1057.5
20260502100603 64 90 3.5 7.8 0.00 0.01 0.01 71 1057.6
20260502100503 64 89 2.6 7.0 0.00 0.01 0.01 71 1057.6
20260502100404 64 87 3.5 6.1 0.00 0.01 0.01 71 1057.6
20260502100304 64 86 3.5 7.0 0.00 0.01 0.01 71 1057.7
20260502100208 64 85 3.5 7.0 0.00 0.01 0.01 71 1057.6
20260502100135 64 85 3.5 7.0 0.00 0.01 0.01 71 1057.6
20260502100127 64 85 3.5 7.0 0.00 0.01 0.01 71 1057.6
20260502091431 63 127 2.6 6.1 0.00 0.01 0.01 78 1058.0
20260502091418 63 127 2.6 6.1 0.00 0.01 0.01 78 1058.0
20260502091407 63 128 2.6 6.1 0.00 0.01 0.01 77 1058.0
20260502091143 63 135 2.6 7.8 0.00 0.01 0.01 76 1058.0
20260502090650 63 130 2.6 7.8 0.00 0.01 0.01 76 1058.0
20260502090624 63 131 2.6 7.8 0.00 0.01 0.01 76 1057.9
20260502090617 63 130 2.6 7.8 0.00 0.01 0.01 76 1058.0
20260502090250 63 131 2.6 7.8 0.00 0.01 0.01 76 1058.0
20260502090202 63 131 2.6 7.8 0.00 0.01 0.01 76 1058.0
20260502090149 63 131 2.6 7.8 0.00 0.01 0.01 76 1058.0
20260502071448 60 73 0.9 2.6 0.00 0.00 0.00 89 1058.1
20260502071343 60 73 0.9 2.6 0.00 0.00 0.00 89 1058.1
20260502071247 60 73 0.9 2.6 0.00 0.00 0.00 89 1058.1
20260502071238 60 74 0.9 2.6 0.00 0.00 0.00 89 1058.2
20260502071223 60 73 0.9 2.6 0.00 0.00 0.00 89 1058.1
20260502070950 60 73 0.9 2.6 0.00 0.00 0.00 89 1058.1
20260502070922 60 73 0.9 2.6 0.00 0.00 0.00 89 1058.1
20260502070656 60 73 0.9 1.7 0.00 0.00 0.00 89 1058.1
20260502070338 60 73 0.9 2.6 0.00 0.00 0.00 89 1058.1
20260502070237 60 73 0.9 2.6 0.00 0.00 0.00 89 1058.1
20260502070201 60 73 0.9 2.6 0.00 0.00 0.00 89 1058.1
20260502070138 60 73 0.9 2.6 0.00 0.00 0.00 89 1058.1
20260502070038 60 74 0.9 2.6 0.00 0.00 0.00 89 1058.0
20260502065940 59 74 0.9 2.6 0.00 0.00 0.00 89 1058.1
20260502065838 59 73 0.9 2.6 0.00 0.00 0.00 89 1058.1
20260502065735 59 74 0.9 2.6 0.00 0.00 0.00 89 1058.1
20260502065700 59 73 0.9 2.6 0.00 0.00 0.00 89 1058.1
20260502065639 59 73 0.9 2.6 0.00 0.00 0.00 89 1058.1
20260502065535 59 73 0.9 2.6 0.00 0.00 0.00 89 1058.1
20260502065510 59 73 0.9 2.6 0.00 0.00 0.00 89 1058.1
20260502065459 59 73 0.9 2.6 0.00 0.00 0.00 89 1058.1
20260502065201 59 73 0.9 2.6 0.00 0.00 0.00 89 1058.2
20260502065137 59 73 0.9 2.6 0.00 0.00 0.00 89 1058.2
20260502065038 59 73 0.9 2.6 0.00 0.00 0.00 89 1058.2
20260502064936 59 73 0.9 2.6 0.00 0.00 0.00 89 1058.2
20260502064917 59 73 0.9 2.6 0.00 0.00 0.00 89 1058.2
20260502064904 59 74 0.9 2.6 0.00 0.00 0.00 89 1058.2
20260502064855 59 73 0.9 2.6 0.00 0.00 0.00 89 1058.2
20260502064532 59 74 0.9 2.6 0.00 0.00 0.00 90 1058.2
20260502064432 59 73 0.9 2.6 0.00 0.00 0.00 90 1058.2
20260502064332 59 73 0.0 2.6 0.00 0.00 0.00 90 1058.2
20260502064201 59 73 0.0 2.6 0.00 0.00 0.00 90 1058.2
20260502064135 59 73 0.0 2.6 0.00 0.00 0.00 90 1058.2
20260502064038 59 73 0.0 0.9 0.00 0.00 0.00 90 1058.2
20260502064030 59 73 0.0 0.9 0.00 0.00 0.00 90 1058.2
20260502064021 59 74 0.0 0.9 0.00 0.00 0.00 90 1058.2
20260502063951 59 73 0.0 0.9 0.00 0.00 0.00 90 1058.2
20260502063947 59 73 0.0 0.9 0.00 0.00 0.00 90 1058.2
20260502063932 59 74 0.0 0.9 0.00 0.00 0.00 90 1058.2
20260502063711 59 73 0.0 0.9 0.00 0.00 0.00 90 1058.2
20260502063438 59 74 0.9 1.7 0.00 0.00 0.00 90 1058.2
20260502063210 59 74 0.9 1.7 0.00 0.00 0.00 90 1058.2
20260502062942 59 73 0.9 1.7 0.00 0.00 0.00 90 1058.2
20260502062700 59 73 0.9 1.7 0.00 0.00 0.00 90 1058.2
20260502062619 59 74 0.9 1.7 0.00 0.00 0.00 90 1058.1
20260502062520 59 74 0.9 1.7 0.00 0.00 0.00 90 1058.1
20260502062418 59 74 0.0 1.7 0.00 0.00 0.00 90 1058.1
20260502062403 59 73 0.0 1.7 0.00 0.00 0.00 90 1058.1
20260502062340 59 74 0.0 1.7 0.00 0.00 0.00 90 1058.1
20260502062016 59 73 0.0 0.9 0.00 0.00 0.00 90 1058.1
20260502061914 59 73 0.0 1.7 0.00 0.00 0.00 90 1058.1
20260502061834 59 73 0.0 1.7 0.00 0.00 0.00 90 1058.1
20260502061813 59 73 0.0 1.7 0.00 0.00 0.00 90 1058.0
20260502061801 59 73 0.0 1.7 0.00 0.00 0.00 90 1058.1
20260502061521 59 73 0.0 1.7 0.00 0.00 0.00 90 1058.0
20260502061248 59 74 0.9 1.7 0.00 0.00 0.00 90 1058.0
20260502061233 59 73 0.0 1.7 0.00 0.00 0.00 90 1058.0
20260502060916 59 74 0.0 1.7 0.00 0.00 0.00 90 1058.0
20260502060906 59 73 0.0 1.7 0.00 0.00 0.00 90 1058.0
20260502060848 59 73 0.0 1.7 0.00 0.00 0.00 90 1058.0
20260502060614 59 73 0.0 1.7 0.00 0.00 0.00 90 1057.9
20260502060607 59 74 0.0 1.7 0.00 0.00 0.00 90 1057.9
20260502060552 59 74 0.0 1.7 0.00 0.00 0.00 90 1057.9
20260502060538 59 73 0.0 0.9 0.00 0.00 0.00 90 1057.9
20260502060526 59 73 0.0 0.9 0.00 0.00 0.00 90 1057.9
20260502060302 59 73 0.0 0.9 0.00 0.00 0.00 90 1057.9
20260502055816 59 73 0.0 0.9 0.00 0.00 0.00 90 1057.9
20260502055802 59 73 0.0 0.9 0.00 0.00 0.00 90 1057.9
20260502055748 59 74 0.0 0.9 0.00 0.00 0.00 90 1057.9
20260502055526 59 74 0.0 0.9 0.00 0.00 0.00 90 1057.9
20260502055509 59 73 0.0 1.7 0.00 0.00 0.00 90 1057.8
20260502055455 59 74 0.0 1.7 0.00 0.00 0.00 90 1057.8
20260502055008 59 73 0.9 1.7 0.00 0.00 0.00 90 1057.8
20260502054951 59 73 0.9 1.7 0.00 0.00 0.00 90 1057.8
20260502054727 59 73 0.9 1.7 0.00 0.00 0.00 90 1057.8
20260502054718 59 75 0.9 1.7 0.00 0.00 0.00 90 1057.8
20260502054711 59 73 0.9 1.7 0.00 0.00 0.00 90 1057.9
20260502054703 59 73 0.9 1.7 0.00 0.00 0.00 90 1057.9
20260502054430 59 73 0.9 1.7 0.00 0.00 0.00 90 1057.9
20260502054203 59 73 0.9 1.7 0.00 0.00 0.00 90 1057.9
20260502053937 59 73 1.7 1.7 0.00 0.00 0.00 90 1057.9
20260502053702 59 74 1.7 1.7 0.00 0.00 0.00 90 1057.9
20260502053604 59 73 1.7 2.6 0.00 0.00 0.00 90 1057.9
20260502053504 59 73 1.7 2.6 0.00 0.00 0.00 90 1057.9
20260502053444 59 73 1.7 2.6 0.00 0.00 0.00 90 1057.9
20260502053433 59 73 1.7 2.6 0.00 0.00 0.00 90 1057.9
20260502053201 59 74 1.7 2.6 0.00 0.00 0.00 90 1057.8
20260502053102 59 74 0.9 2.6 0.00 0.00 0.00 90 1057.8
20260502053002 59 74 0.9 2.6 0.00 0.00 0.00 90 1057.9
20260502052902 59 74 0.9 2.6 0.00 0.00 0.00 90 1057.8
20260502052802 59 73 0.9 2.6 0.00 0.00 0.00 90 1057.8
20260502052702 59 73 0.9 2.6 0.00 0.00 0.00 90 1057.8
20260502052602 59 73 0.0 1.7 0.00 0.00 0.00 90 1057.8
20260502052502 59 74 0.0 1.7 0.00 0.00 0.00 90 1057.8
20260502052447 59 74 0.0 1.7 0.00 0.00 0.00 90 1057.8
20260502052437 59 74 0.0 1.7 0.00 0.00 0.00 90 1057.8
20260502052415 59 74 0.0 0.9 0.00 0.00 0.00 90 1057.8
20260502052100 59 73 0.0 0.9 0.00 0.00 0.00 90 1057.8
20260502051957 59 74 0.0 0.9 0.00 0.00 0.00 90 1057.8
20260502051857 59 73 0.0 0.9 0.00 0.00 0.00 89 1057.8
20260502051757 59 73 0.0 0.9 0.00 0.00 0.00 89 1057.8
20260502051704 59 73 0.0 0.9 0.00 0.00 0.00 89 1057.7
20260502051654 59 73 0.0 0.9 0.00 0.00 0.00 89 1057.7
20260502051603 59 74 0.0 0.9 0.00 0.00 0.00 89 1057.7
20260502051554 59 73 0.0 0.9 0.00 0.00 0.00 89 1057.7
20260502051543 59 73 0.0 0.9 0.00 0.00 0.00 89 1057.8
20260502051311 59 73 0.0 0.9 0.00 0.00 0.00 89 1057.8
20260502051307 59 74 0.0 0.9 0.00 0.00 0.00 89 1057.7
20260502050942 59 73 0.0 1.7 0.00 0.00 0.00 89 1057.8
20260502050842 59 73 0.0 1.7 0.00 0.00 0.00 89 1057.8
20260502050742 59 73 0.9 1.7 0.00 0.00 0.00 89 1057.7
20260502050703 59 74 0.9 1.7 0.00 0.00 0.00 89 1057.7
20260502050643 59 73 0.9 1.7 0.00 0.00 0.00 89 1057.7
20260502050531 59 73 0.9 1.7 0.00 0.00 0.00 89 1057.8
20260502050431 59 73 0.9 1.7 0.00 0.00 0.00 89 1057.8
20260502050330 59 73 0.9 1.7 0.00 0.00 0.00 89 1057.8
20260502050202 59 73 0.9 1.7 0.00 0.00 0.00 89 1057.8
20260502050133 59 73 0.9 1.7 0.00 0.00 0.00 89 1057.8
20260502050030 59 73 0.9 1.7 0.00 0.00 0.00 89 1057.7
20260502045930 59 73 0.0 1.7 0.00 0.00 0.00 89 1057.7
20260502045830 59 73 0.0 1.7 0.00 0.00 0.00 89 1057.7
20260502045704 59 74 0.0 0.9 0.00 0.00 0.00 89 1057.7
20260502045629 59 73 0.0 0.9 0.00 0.00 0.00 89 1057.8
20260502045520 59 74 0.0 0.9 0.00 0.00 0.00 89 1057.7
20260502045450 59 73 0.0 0.9 0.00 0.00 0.00 89 1057.6
20260502045443 59 74 0.0 0.9 0.00 0.00 0.00 89 1057.6
20260502045202 59 73 0.0 1.7 0.00 0.00 0.00 89 1057.6
20260502045118 59 74 0.0 1.7 0.00 0.00 0.00 89 1057.6
20260502045010 59 74 0.9 1.7 0.00 0.00 0.00 88 1057.6
20260502044941 59 73 0.9 1.7 0.00 0.00 0.00 88 1057.6
20260502044932 59 73 0.9 1.7 0.00 0.00 0.00 88 1057.6
20260502044918 59 73 0.9 3.5 0.00 0.00 0.00 88 1057.6
20260502044606 59 73 0.9 3.5 0.00 0.00 0.00 88 1057.7
20260502044504 59 74 1.7 3.5 0.00 0.00 0.00 88 1057.6
20260502044404 59 73 1.7 3.5 0.00 0.00 0.00 88 1057.6
20260502044303 59 73 1.7 3.5 0.00 0.00 0.00 88 1057.6
20260502044229 59 74 0.9 3.5 0.00 0.00 0.00 88 1057.7
20260502044220 59 74 1.7 3.5 0.00 0.00 0.00 88 1057.6
20260502044204 59 73 1.7 3.5 0.00 0.00 0.00 88 1057.6
20260502043937 59 73 0.9 3.5 0.00 0.00 0.00 88 1057.6
20260502043917 59 73 0.9 2.6 0.00 0.00 0.00 88 1057.6
20260502043604 59 73 0.9 2.6 0.00 0.00 0.00 88 1057.6
20260502043504 59 73 0.0 2.6 0.00 0.00 0.00 88 1057.6
20260502043404 59 73 0.0 2.6 0.00 0.00 0.00 88 1057.7
20260502043303 59 73 0.9 2.6 0.00 0.00 0.00 88 1057.7
20260502043204 59 73 0.9 2.6 0.00 0.00 0.00 88 1057.7
20260502043104 59 73 0.9 2.6 0.00 0.00 0.00 88 1057.7
20260502043004 59 76 0.0 1.7 0.00 0.00 0.00 88 1057.7
20260502042903 59 74 0.9 1.7 0.00 0.00 0.00 88 1057.7
20260502042834 59 74 0.9 1.7 0.00 0.00 0.00 88 1057.7
20260502042818 59 73 0.9 1.7 0.00 0.00 0.00 88 1057.6
20260502042802 59 74 0.9 1.7 0.00 0.00 0.00 88 1057.6
20260502042753 59 74 0.9 1.7 0.00 0.00 0.00 88 1057.7
20260502042521 59 73 0.9 1.7 0.00 0.00 0.00 88 1057.6
20260502042507 59 73 0.0 1.7 0.00 0.00 0.00 88 1057.7
20260502042242 59 73 0.0 1.7 0.00 0.00 0.00 88 1057.6
20260502041901 59 73 0.0 1.7 0.00 0.00 0.00 88 1057.6
20260502041844 59 73 0.0 1.7 0.00 0.00 0.00 88 1057.6
20260502041830 59 73 0.0 1.7 0.00 0.00 0.00 88 1057.6
20260502041502 59 74 0.0 1.7 0.00 0.00 0.00 88 1057.6
20260502041402 59 73 0.9 1.7 0.00 0.00 0.00 88 1057.6
20260502041300 59 73 0.9 1.7 0.00 0.00 0.00 88 1057.6
20260502041207 59 74 0.9 1.7 0.00 0.00 0.00 88 1057.6
20260502041157 59 73 0.9 1.7 0.00 0.00 0.00 88 1057.6
20260502041052 59 73 0.9 1.7 0.00 0.00 0.00 88 1057.6
20260502040952 59 73 0.9 1.7 0.00 0.00 0.00 88 1057.6
20260502040850 59 73 0.0 1.7 0.00 0.00 0.00 88 1057.6
20260502040750 59 73 0.0 1.7 0.00 0.00 0.00 88 1057.6
20260502040705 59 73 0.0 1.7 0.00 0.00 0.00 88 1057.6
20260502040650 59 73 0.9 1.7 0.00 0.00 0.00 88 1057.6
20260502040549 59 74 0.9 1.7 0.00 0.00 0.00 88 1057.6
20260502040457 59 73 0.9 1.7 0.00 0.00 0.00 88 1057.7
20260502040449 59 73 0.0 1.7 0.00 0.00 0.00 88 1057.6
20260502040444 59 73 0.0 1.7 0.00 0.00 0.00 88 1057.6
20260502040432 59 73 0.0 1.7 0.00 0.00 0.00 88 1057.7
20260502040422 59 73 0.0 1.7 0.00 0.00 0.00 88 1057.7
20260502040150 59 74 0.0 1.7 0.00 0.00 0.00 88 1057.7
20260502040143 59 73 0.0 1.7 0.00 0.00 0.00 88 1057.7
20260502035646 59 74 0.0 1.7 0.00 0.00 0.00 87 1057.7
20260502035546 59 73 0.0 1.7 0.00 0.00 0.00 87 1057.6
20260502035446 59 74 0.0 0.9 0.00 0.00 0.00 87 1057.6
20260502035342 59 73 0.0 1.7 0.00 0.00 0.00 87 1057.6
20260502035318 59 73 0.0 1.7 0.00 0.00 0.00 87 1057.6
20260502035306 59 73 0.0 1.7 0.00 0.00 0.00 87 1057.6
20260502034942 59 73 0.9 2.6 0.00 0.00 0.00 87 1057.6
20260502034934 59 73 0.9 2.6 0.00 0.00 0.00 87 1057.6
20260502034922 59 73 0.9 2.6 0.00 0.00 0.00 87 1057.6
20260502034637 59 73 0.9 2.6 0.00 0.00 0.00 87 1057.6
20260502034538 59 73 0.9 2.6 0.00 0.00 0.00 87 1057.6
20260502034438 59 73 0.9 2.6 0.00 0.00 0.00 87 1057.6
20260502034418 59 74 0.9 2.6 0.00 0.00 0.00 87 1057.6
20260502034410 59 73 0.9 2.6 0.00 0.00 0.00 87 1057.6
20260502034401 59 74 0.9 2.6 0.00 0.00 0.00 87 1057.6
20260502034107 59 73 0.9 2.6 0.00 0.00 0.00 87 1057.6
20260502034058 59 74 0.9 2.6 0.00 0.00 0.00 87 1057.6
20260502033739 59 73 0.9 2.6 0.00 0.00 0.00 87 1057.5
20260502033701 59 73 0.9 2.6 0.00 0.00 0.00 87 1057.5
20260502033638 59 74 0.9 2.6 0.00 0.00 0.00 87 1057.5
20260502033611 59 73 0.0 2.6 0.00 0.00 0.00 87 1057.6
20260502033600 59 73 0.9 2.6 0.00 0.00 0.00 87 1057.6
20260502033238 59 73 0.9 2.6 0.00 0.00 0.00 87 1057.6
20260502033200 59 73 0.9 2.6 0.00 0.00 0.00 87 1057.6
20260502033138 59 73 0.9 2.6 0.00 0.00 0.00 87 1057.6
20260502033036 59 73 0.9 2.6 0.00 0.00 0.00 87 1057.6
20260502032936 59 75 0.9 2.6 0.00 0.00 0.00 87 1057.6
20260502032917 59 73 0.9 2.6 0.00 0.00 0.00 87 1057.6
20260502032908 59 73 0.9 2.6 0.00 0.00 0.00 87 1057.6
20260502032852 59 74 0.9 2.6 0.00 0.00 0.00 87 1057.6
20260502032532 59 73 1.7 2.6 0.00 0.00 0.00 87 1057.6
20260502032434 59 73 1.7 2.6 0.00 0.00 0.00 87 1057.6
20260502032331 59 73 1.7 2.6 0.00 0.00 0.00 87 1057.6
20260502032221 59 73 1.7 2.6 0.00 0.00 0.00 87 1057.6
20260502032215 59 74 1.7 2.6 0.00 0.00 0.00 87 1057.6
20260502032202 59 73 0.9 2.6 0.00 0.00 0.00 87 1057.6
20260502032149 59 73 0.9 2.6 0.00 0.00 0.00 87 1057.6
20260502032139 59 74 0.9 2.6 0.00 0.00 0.00 87 1057.7
20260502032121 59 73 0.9 2.6 0.00 0.00 0.00 87 1057.7
20260502031902 59 73 0.9 2.6 0.00 0.00 0.00 87 1057.6
20260502031849 59 74 0.9 2.6 0.00 0.00 0.00 87 1057.6
20260502031841 59 73 0.0 2.6 0.00 0.00 0.00 87 1057.6
20260502031822 59 73 0.0 2.6 0.00 0.00 0.00 86 1057.6
20260502031337 59 73 0.0 1.7 0.00 0.00 0.00 86 1057.6
20260502031111 59 73 0.0 1.7 0.00 0.00 0.00 86 1057.7
20260502030552 59 73 0.0 1.7 0.00 0.00 0.00 86 1057.6
20260502030542 59 73 0.9 1.7 0.00 0.00 0.00 86 1057.6
20260502030200 59 73 0.9 1.7 0.00 0.00 0.00 86 1057.6
20260502030120 59 73 0.9 1.7 0.00 0.00 0.00 86 1057.6
20260502030023 59 73 0.9 1.7 0.00 0.00 0.00 86 1057.6
20260502025920 59 74 0.0 1.7 0.00 0.00 0.00 86 1057.6
20260502025820 59 74 0.0 1.7 0.00 0.00 0.00 86 1057.6
20260502025701 59 74 0.9 1.7 0.00 0.00 0.00 86 1057.5
20260502025620 59 73 0.9 2.6 0.00 0.00 0.00 86 1057.6
20260502025521 59 74 0.9 2.6 0.00 0.00 0.00 86 1057.6
20260502025420 59 74 0.0 2.6 0.00 0.00 0.00 86 1057.6
20260502025320 59 74 0.0 2.6 0.00 0.00 0.00 86 1057.6
20260502025201 59 73 0.0 2.6 0.00 0.00 0.00 86 1057.6
20260502025120 59 73 0.9 2.6 0.00 0.00 0.00 86 1057.6
20260502025022 59 73 0.9 2.6 0.00 0.00 0.00 86 1057.6
20260502024944 59 74 0.9 2.6 0.00 0.00 0.00 86 1057.6
20260502024935 59 73 0.9 2.6 0.00 0.00 0.00 86 1057.6
20260502024922 59 73 0.9 2.6 0.00 0.00 0.00 86 1057.6
20260502024653 59 74 0.9 2.6 0.00 0.00 0.00 86 1057.6
20260502024643 59 74 0.9 2.6 0.00 0.00 0.00 86 1057.6
20260502024405 59 73 0.9 2.6 0.00 0.00 0.00 86 1057.6
20260502024339 59 73 0.9 2.6 0.00 0.00 0.00 86 1057.7
20260502024025 59 73 1.7 2.6 0.00 0.00 0.00 86 1057.6
20260502023920 59 73 1.7 2.6 0.00 0.00 0.00 86 1057.6
20260502023858 59 74 0.9 2.6 0.00 0.00 0.00 86 1057.6
20260502023841 59 73 1.7 2.6 0.00 0.00 0.00 86 1057.6
20260502023521 59 73 1.7 2.6 0.00 0.00 0.00 86 1057.6
20260502023420 59 73 0.9 2.6 0.00 0.00 0.00 86 1057.6
20260502023320 59 73 0.9 2.6 0.00 0.00 0.00 86 1057.7
20260502023201 59 73 0.9 2.6 0.00 0.00 0.00 86 1057.6
20260502023120 59 73 0.9 2.6 0.00 0.00 0.00 86 1057.6
20260502023018 59 74 0.9 2.6 0.00 0.00 0.00 86 1057.6
20260502023001 59 73 0.9 2.6 0.00 0.00 0.00 86 1057.6
20260502022953 59 73 0.9 2.6 0.00 0.00 0.00 86 1057.6
20260502022939 59 74 0.9 2.6 0.00 0.00 0.00 86 1057.6
20260502022930 59 73 0.9 2.6 0.00 0.00 0.00 86 1057.6
20260502022700 59 73 0.9 2.6 0.00 0.00 0.00 86 1057.6
20260502022436 59 74 0.9 2.6 0.00 0.00 0.00 86 1057.7
20260502022422 59 73 0.9 1.7 0.00 0.00 0.00 86 1057.7
20260502022116 59 73 0.9 1.7 0.00 0.00 0.00 86 1057.7
20260502022019 59 73 0.9 3.5 0.00 0.00 0.00 86 1057.8
20260502021956 59 74 0.9 3.5 0.00 0.00 0.00 87 1057.8
20260502021947 59 73 0.9 3.5 0.00 0.00 0.00 87 1057.8
20260502021702 59 73 0.9 3.5 0.00 0.00 0.00 87 1057.7
20260502021616 59 73 0.9 3.5 0.00 0.00 0.00 87 1057.8
20260502021517 59 73 0.9 3.5 0.00 0.00 0.00 87 1057.8
20260502021417 59 73 1.7 3.5 0.00 0.00 0.00 87 1057.8
20260502021355 59 73 1.7 3.5 0.00 0.00 0.00 87 1057.8
20260502021345 59 73 1.7 3.5 0.00 0.00 0.00 87 1057.9
20260502021338 59 74 1.7 3.5 0.00 0.00 0.00 87 1057.9
20260502021028 59 73 1.7 2.6 0.00 0.00 0.00 87 1057.9
20260502021012 59 75 1.7 2.6 0.00 0.00 0.00 87 1057.9
20260502021003 59 74 0.9 2.6 0.00 0.00 0.00 86 1057.9
20260502020952 59 74 0.9 2.6 0.00 0.00 0.00 86 1057.9
20260502020944 59 73 0.9 2.6 0.00 0.00 0.00 86 1057.9
20260502020707 59 73 0.9 2.6 0.00 0.00 0.00 86 1057.9
20260502020442 59 74 0.9 2.6 0.00 0.00 0.00 86 1057.9
20260502020202 59 73 0.0 2.6 0.00 0.00 0.00 86 1057.9
20260502020118 59 73 0.0 2.6 0.00 0.00 0.00 86 1057.9
20260502020036 59 73 0.0 1.7 0.00 0.00 0.00 86 1058.0
20260502015918 59 74 0.0 0.0 0.00 0.00 0.00 86 1057.9
20260502015817 59 73 0.0 0.0 0.00 0.00 0.00 86 1058.0
20260502015718 59 74 0.0 0.0 0.00 0.00 0.00 86 1058.0
20260502015704 59 73 0.0 0.9 0.00 0.00 0.00 86 1058.0
20260502015613 59 73 0.0 1.7 0.00 0.00 0.00 86 1057.9
20260502015542 59 73 0.0 1.7 0.00 0.00 0.00 86 1057.9
20260502015535 59 73 0.0 1.7 0.00 0.00 0.00 86 1058.0
20260502015221 59 74 0.0 1.7 0.00 0.00 0.00 86 1058.0
20260502015206 59 73 0.0 1.7 0.00 0.00 0.00 86 1058.0
20260502015112 59 73 0.9 1.7 0.00 0.00 0.00 86 1058.0
20260502015011 59 73 0.9 2.6 0.00 0.00 0.00 86 1058.0
20260502014909 59 75 0.9 2.6 0.00 0.00 0.00 86 1057.9
20260502014810 59 73 0.9 2.6 0.00 0.00 0.00 86 1058.0
20260502014702 59 73 0.9 2.6 0.00 0.00 0.00 86 1058.0
20260502014612 59 73 0.9 2.6 0.00 0.00 0.00 86 1057.9
20260502014503 59 73 0.9 2.6 0.00 0.00 0.00 86 1058.0
20260502014444 59 73 0.9 3.5 0.00 0.00 0.00 86 1057.9
20260502014436 59 73 1.7 3.5 0.00 0.00 0.00 86 1057.9
20260502014421 59 73 1.7 3.5 0.00 0.00 0.00 86 1057.9
20260502014104 59 73 1.7 3.5 0.00 0.00 0.00 86 1057.9
20260502014004 59 73 1.7 3.5 0.00 0.00 0.00 86 1057.9
20260502013903 59 74 1.7 3.5 0.00 0.00 0.00 86 1057.9
20260502013803 59 73 0.9 3.5 0.00 0.00 0.00 86 1057.9
20260502013704 59 73 1.7 3.5 0.00 0.00 0.00 86 1057.9
20260502013636 59 74 0.9 3.5 0.00 0.00 0.00 86 1057.9
20260502013627 59 73 0.9 3.5 0.00 0.00 0.00 86 1057.9
20260502013304 59 74 0.9 3.5 0.00 0.00 0.00 86 1057.9
20260502013207 59 73 0.9 2.6 0.00 0.00 0.00 86 1057.9
20260502013203 59 73 0.9 2.6 0.00 0.00 0.00 86 1057.9
20260502013102 59 73 0.9 2.6 0.00 0.00 0.00 86 1057.9
20260502013004 59 73 0.0 1.7 0.00 0.00 0.00 86 1057.9
20260502012900 59 73 0.0 1.7 0.00 0.00 0.00 86 1058.0
20260502012759 59 74 0.0 1.7 0.00 0.00 0.00 86 1058.0
20260502012707 59 74 0.0 1.7 0.00 0.00 0.00 86 1058.0
20260502012658 59 73 0.0 1.7 0.00 0.00 0.00 86 1058.0
20260502012559 59 73 0.0 0.9 0.00 0.00 0.00 86 1058.1
20260502012456 59 73 0.0 1.7 0.00 0.00 0.00 86 1058.0
20260502012354 59 73 0.0 1.7 0.00 0.00 0.00 86 1058.0
20260502012253 59 73 0.9 1.7 0.00 0.00 0.00 86 1058.1
20260502012203 59 73 0.9 1.7 0.00 0.00 0.00 86 1058.1
20260502012154 59 73 0.9 1.7 0.00 0.00 0.00 86 1058.1
20260502012118 59 73 0.0 1.7 0.00 0.00 0.00 86 1058.1
20260502012057 59 73 0.9 1.7 0.00 0.00 0.00 86 1058.1
20260502012042 59 73 0.9 1.7 0.00 0.00 0.00 86 1058.2
20260502012021 59 73 0.9 1.7 0.00 0.00 0.00 86 1058.1
20260502011438 59 73 0.9 1.7 0.00 0.00 0.00 86 1058.1
20260502011338 59 73 0.9 2.6 0.00 0.00 0.00 86 1058.1
20260502011234 59 73 0.9 2.6 0.00 0.00 0.00 86 1058.1
20260502011201 59 73 0.9 3.5 0.00 0.00 0.00 86 1058.1
20260502011133 59 73 0.9 3.5 0.00 0.00 0.00 86 1058.1
20260502011034 59 73 0.9 4.3 0.00 0.00 0.00 86 1058.1
20260502010933 59 76 1.7 4.3 0.00 0.00 0.00 86 1058.1
20260502010832 59 74 1.7 6.1 0.00 0.00 0.00 86 1058.1
20260502010752 59 74 1.7 6.1 0.00 0.00 0.00 86 1058.1
20260502010740 59 73 1.7 6.1 0.00 0.00 0.00 86 1058.1
20260502010736 60 73 2.6 6.1 0.00 0.00 0.00 86 1058.2
20260502010717 60 73 2.6 6.1 0.00 0.00 0.00 86 1058.1
20260502010438 60 74 1.7 6.1 0.00 0.00 0.00 86 1058.1
20260502010419 60 73 1.7 6.1 0.00 0.00 0.00 86 1058.1
20260502010410 60 73 1.7 6.1 0.00 0.00 0.00 86 1058.1
20260502010145 60 73 1.7 6.1 0.00 0.00 0.00 86 1058.1
20260502010134 60 74 0.9 6.1 0.00 0.00 0.00 86 1058.1
20260502010121 60 148 0.9 2.6 0.00 0.00 0.00 87 1058.1
20260502005856 60 148 0.9 2.6 0.00 0.00 0.00 87 1058.1
20260502005624 60 149 0.9 2.6 0.00 0.00 0.00 87 1058.1
20260502005616 60 149 0.9 2.6 0.00 0.00 0.00 87 1058.1
20260502005607 60 149 0.9 2.6 0.00 0.00 0.00 87 1058.1
20260502005338 60 149 0.9 2.6 0.00 0.00 0.00 87 1058.1
20260502005321 60 149 0.0 1.7 0.00 0.00 0.00 87 1058.2
20260502004815 60 149 0.0 1.7 0.00 0.00 0.00 87 1058.1
20260502004807 60 149 0.0 1.7 0.00 0.00 0.00 87 1058.1
20260502004754 60 149 0.0 1.7 0.00 0.00 0.00 87 1058.1
20260502004213 60 149 0.0 0.9 0.00 0.00 0.00 87 1058.2
20260502004201 60 148 0.0 0.0 0.00 0.00 0.00 87 1058.2
20260502004112 60 149 0.0 0.9 0.00 0.00 0.00 87 1058.2
20260502004015 60 149 0.0 1.7 0.00 0.00 0.00 87 1058.2
20260502003911 60 149 0.0 1.7 0.00 0.00 0.00 87 1058.2
20260502003842 59 149 0.9 2.6 0.00 0.00 0.00 87 1058.3
20260502003822 59 149 0.9 2.6 0.00 0.00 0.00 87 1058.3
20260502003508 59 149 0.9 2.6 0.00 0.00 0.00 87 1058.3
20260502003441 59 149 0.9 2.6 0.00 0.00 0.00 87 1058.3
20260502003432 59 149 0.9 2.6 0.00 0.00 0.00 87 1058.3
20260502003417 59 149 0.9 2.6 0.00 0.00 0.00 87 1058.4
20260502003106 59 149 0.9 2.6 0.00 0.00 0.00 87 1058.4
20260502003017 59 149 0.0 2.6 0.00 0.00 0.00 87 1058.4
20260502002903 59 149 0.0 2.6 0.00 0.00 0.00 87 1058.4
20260502002803 59 149 0.0 2.6 0.00 0.00 0.00 87 1058.4
20260502002714 59 150 0.0 0.0 0.00 0.00 0.00 87 1058.4
20260502002703 59 150 0.0 0.0 0.00 0.00 0.00 87 1058.4
20260502002601 59 150 0.0 0.0 0.00 0.00 0.00 87 1058.4
20260502002501 59 150 0.0 0.0 0.00 0.00 0.00 87 1058.4
20260502002400 59 149 0.0 0.0 0.00 0.00 0.00 86 1058.4
20260502002258 59 149 0.0 0.0 0.00 0.00 0.00 86 1058.4
20260502002207 59 150 0.0 0.0 0.00 0.00 0.00 87 1058.5
20260502002159 59 150 0.0 0.0 0.00 0.00 0.00 87 1058.5
20260502002059 59 150 0.0 0.0 0.00 0.00 0.00 87 1058.5
20260502001957 59 149 0.0 0.0 0.00 0.00 0.00 87 1058.5
20260502001854 59 149 0.0 0.0 0.00 0.00 0.00 87 1058.6
20260502001753 59 150 0.0 0.0 0.00 0.00 0.00 87 1058.5
20260502001704 59 149 0.0 0.0 0.00 0.00 0.00 87 1058.6
20260502001653 59 150 0.0 0.0 0.00 0.00 0.00 87 1058.6
20260502001553 59 150 0.0 0.0 0.00 0.00 0.00 87 1058.6
20260502001517 59 149 0.0 0.0 0.00 0.00 0.00 87 1058.6
20260502001509 59 150 0.0 0.0 0.00 0.00 0.00 87 1058.7
20260502001202 59 149 0.0 0.0 0.00 0.00 0.00 87 1058.7
20260502001147 59 149 0.0 0.0 0.00 0.00 0.00 87 1058.7
20260502001047 59 149 0.0 0.0 0.00 0.00 0.00 87 1058.7
20260502000948 59 149 0.0 0.0 0.00 0.00 0.00 87 1058.7
20260502000848 59 150 0.0 0.0 0.00 0.00 0.00 87 1058.7
20260502000742 59 149 0.0 0.0 0.00 0.00 0.00 86 1058.8
20260502000701 59 149 0.0 0.0 0.00 0.00 0.00 86 1058.8
20260502000640 59 150 0.0 0.0 0.00 0.00 0.00 86 1058.9
20260502000541 59 150 0.0 0.0 0.00 0.00 0.00 86 1058.9
20260502000441 59 150 0.0 0.0 0.00 0.00 0.00 86 1058.8
20260502000424 59 149 0.0 0.0 0.00 0.00 0.00 86 1058.9
20260502000402 59 149 0.0 0.0 0.00 0.00 0.00 86 1058.9
20260502000058 59 150 0.0 0.0 0.00 0.00 0.00 86 1059.0
20260502000043 59 150 0.0 0.0 0.00 0.00 0.00 86 1059.0
20260502000032 59 149 0.0 0.0 0.00 0.00 0.00 86 1059.0
20260502000022 59 150 0.0 0.0 0.00 0.00 0.00 86 1059.0
20260501235756 59 150 0.0 0.0 0.00 0.00 0.00 86 1059.0
20260501235434 59 150 0.0 0.0 0.00 0.00 0.00 86 1059.0
20260501235331 59 149 0.0 0.0 0.00 0.00 0.00 86 1059.0
20260501235233 59 150 0.0 0.0 0.00 0.00 0.00 86 1059.0
20260501235201 59 150 0.0 0.0 0.00 0.00 0.00 86 1059.0
20260501235131 59 150 0.0 0.0 0.00 0.00 0.00 86 1059.1
20260501235032 59 150 0.0 0.0 0.00 0.00 0.00 86 1059.0
20260501234955 59 149 0.0 0.0 0.00 0.00 0.00 86 1059.0
20260501234948 59 150 0.0 0.0 0.00 0.00 0.00 86 1059.0
20260501234701 59 149 0.0 0.0 0.00 0.00 0.00 86 1059.0
20260501234627 59 149 0.0 0.0 0.00 0.00 0.00 86 1059.0
20260501234527 59 150 0.0 0.0 0.00 0.00 0.00 86 1059.1
20260501234427 59 150 0.0 0.0 0.00 0.00 0.00 86 1059.1
20260501234327 59 150 0.0 0.0 0.00 0.00 0.00 86 1059.0
20260501234231 59 149 0.0 0.0 0.00 0.00 0.00 86 1059.0
20260501234201 59 150 0.0 0.0 0.00 0.00 0.00 86 1059.0
20260501234127 59 149 0.0 0.0 0.00 0.00 0.00 86 1059.0
20260501234026 59 149 0.0 0.0 0.00 0.00 0.00 86 1059.0
20260501233952 59 150 0.0 0.0 0.00 0.00 0.00 86 1059.0
20260501233946 59 150 0.0 0.0 0.00 0.00 0.00 86 1059.1
20260501233701 59 150 0.0 0.0 0.00 0.00 0.00 86 1059.0
20260501233620 59 149 0.0 0.0 0.00 0.00 0.00 86 1059.0
20260501233522 59 149 0.0 0.0 0.00 0.00 0.00 86 1059.1
20260501233420 59 150 0.0 0.0 0.00 0.00 0.00 86 1059.1
20260501233317 59 149 0.0 0.0 0.00 0.00 0.00 86 1059.1
20260501233201 59 150 0.0 0.0 0.00 0.00 0.00 86 1059.1
20260501233115 59 150 0.0 0.0 0.00 0.00 0.00 86 1059.1
20260501233009 59 149 0.0 0.0 0.00 0.00 0.00 86 1059.1
20260501232909 59 150 0.0 0.0 0.00 0.00 0.00 86 1059.1
20260501232807 59 149 0.0 0.0 0.00 0.00 0.00 86 1059.1
20260501232701 59 149 0.0 0.0 0.00 0.00 0.00 86 1059.1
20260501232607 59 150 0.0 0.0 0.00 0.00 0.00 86 1059.1
20260501232508 59 150 0.0 0.0 0.00 0.00 0.00 86 1059.1
20260501232407 59 149 0.0 0.0 0.00 0.00 0.00 86 1059.1
20260501232307 59 150 0.0 0.0 0.00 0.00 0.00 86 1059.1
20260501232202 59 150 0.0 0.0 0.00 0.00 0.00 86 1059.1
20260501232127 59 149 0.0 0.0 0.00 0.00 0.00 86 1059.1
20260501232118 59 150 0.0 0.0 0.00 0.00 0.00 86 1059.1
20260501232104 59 149 0.0 0.0 0.00 0.00 0.00 86 1059.1
20260501232055 59 150 0.0 0.0 0.00 0.00 0.00 86 1059.1
20260501231828 59 149 0.0 0.0 0.00 0.00 0.00 86 1059.1
20260501231507 59 149 0.0 0.0 0.00 0.00 0.00 86 1059.1
20260501231406 59 150 0.0 0.0 0.00 0.00 0.00 86 1059.0
20260501231307 59 150 0.0 0.0 0.00 0.00 0.00 86 1059.0
20260501231210 59 150 0.0 0.0 0.00 0.00 0.00 86 1059.0
20260501231201 59 149 0.0 0.0 0.00 0.00 0.00 86 1059.0
20260501231107 59 150 0.0 0.0 0.00 0.00 0.00 86 1059.0
20260501231007 59 149 0.0 0.0 0.00 0.00 0.00 86 1059.0
20260501230907 59 150 0.0 0.0 0.00 0.00 0.00 86 1059.0
20260501230807 58 150 0.0 0.0 0.00 0.00 0.00 86 1059.0
20260501230710 58 150 0.0 0.0 0.00 0.00 0.00 86 1059.0
20260501230701 58 149 0.0 0.0 0.00 0.00 0.00 86 1059.0
20260501230638 58 150 0.0 0.0 0.00 0.00 0.00 86 1059.0
20260501230627 58 149 0.0 0.0 0.00 0.00 0.00 86 1059.0
20260501230304 58 149 0.0 0.0 0.00 0.00 0.00 86 1059.1
20260501230234 58 149 0.0 0.0 0.00 0.00 0.00 86 1059.1
20260501230226 58 149 0.0 0.0 0.00 0.00 0.00 86 1059.1
20260501230212 58 150 0.0 0.0 0.00 0.00 0.00 86 1059.1
20260501225937 58 149 0.0 0.0 0.00 0.00 0.00 86 1059.1
20260501225702 58 149 0.0 0.0 0.00 0.00 0.00 86 1059.1
20260501225557 58 149 0.0 0.0 0.00 0.00 0.00 86 1059.1
20260501225456 58 150 0.0 0.0 0.00 0.00 0.00 86 1059.1
20260501225357 58 150 0.0 0.0 0.00 0.00 0.00 86 1059.1
20260501225259 58 149 0.0 0.0 0.00 0.00 0.00 86 1059.1
20260501225204 58 149 0.0 0.0 0.00 0.00 0.00 86 1059.1
20260501225156 58 149 0.0 0.0 0.00 0.00 0.00 86 1059.1
20260501225050 58 149 0.0 0.0 0.00 0.00 0.00 86 1059.1
20260501224950 58 150 0.0 0.0 0.00 0.00 0.00 86 1059.1
20260501224934 58 150 0.0 0.0 0.00 0.00 0.00 86 1059.1
20260501224923 58 149 0.0 0.0 0.00 0.00 0.00 86 1059.1
20260501224650 58 149 0.0 0.0 0.00 0.00 0.00 86 1059.1
20260501224545 58 150 0.0 0.0 0.00 0.00 0.00 86 1059.0
20260501224444 58 149 0.0 0.0 0.00 0.00 0.00 86 1059.0
20260501224344 58 150 0.0 0.0 0.00 0.00 0.00 86 1059.0
20260501224240 58 149 0.0 0.0 0.00 0.00 0.00 86 1059.0
20260501224236 58 150 0.0 0.0 0.00 0.00 0.00 86 1059.0
20260501224226 58 150 0.0 0.0 0.00 0.00 0.00 86 1059.0
20260501224214 58 149 0.0 0.0 0.00 0.00 0.00 86 1059.0
20260501224205 58 149 0.0 0.0 0.00 0.00 0.00 86 1059.0
20260501224158 58 149 0.0 0.0 0.00 0.00 0.00 86 1059.0
20260501223927 58 149 0.0 0.0 0.00 0.00 0.00 86 1059.0
20260501223918 58 150 0.0 0.0 0.00 0.00 0.00 86 1059.0
20260501223420 58 149 0.0 0.0 0.00 0.00 0.00 86 1059.0
20260501223132 58 150 0.0 0.0 0.00 0.00 0.00 86 1059.0
20260501223032 58 149 0.0 0.0 0.00 0.00 0.00 86 1059.0
20260501222932 58 150 0.0 0.0 0.00 0.00 0.00 86 1059.0
20260501222832 58 149 0.0 0.0 0.00 0.00 0.00 86 1059.0
20260501222731 58 149 0.0 0.0 0.00 0.00 0.00 86 1059.0
20260501222700 58 150 0.0 0.0 0.00 0.00 0.00 86 1059.0
20260501222632 58 149 0.0 0.0 0.00 0.00 0.00 86 1059.0
20260501222603 58 150 0.0 0.0 0.00 0.00 0.00 86 1059.0
20260501222555 58 150 0.0 0.0 0.00 0.00 0.00 86 1059.0
20260501222228 58 150 0.0 0.9 0.00 0.00 0.00 85 1059.0
20260501222131 58 150 0.0 0.9 0.00 0.00 0.00 85 1059.0
20260501222118 58 149 0.0 0.9 0.00 0.00 0.00 85 1059.0
20260501222112 58 149 0.0 0.9 0.00 0.00 0.00 85 1059.0
20260501222059 58 150 0.0 0.9 0.00 0.00 0.00 85 1059.0
20260501222051 58 150 0.0 0.9 0.00 0.00 0.00 85 1059.0
20260501221811 58 149 0.0 0.9 0.00 0.00 0.00 85 1059.0